CZ-6A DEB

Satellite information

Favourite Embed

Satellite Type and Status

DEBRISIN ORBIT

Key statistics

Satellite CZ-6A DEB at a glance.

Uptime

970

Days in orbit

Revolutions

≈ 14.3

Per day

Orbit

SSO

Sun Synchronous Orbit

Inclination

98.6

Latest

Satellite identification and parameters

Extended collection of information and parameters for CZ-6A DEB.

Object identification

Identified? True

Debris? True

Object name: CZ-6A DEB

International designator: 2022-151DZ

Object number (NORAD): 54401

Object ID (CCSDS): 54401

Country: PEOPLES REPUBLIC OF CHINA (PRC)

Current information (Y/N): Y

RCS size: SMALL

Orbital parameters

Period: 100.85 minutes

Inclination: 98.6386 deg

SMA: 7177.037 km

Apoapsis: 886.99 km

Periapsis: 710.815 km

RAAN: 185.3491 deg

Eccentricy: 0.0122735

Argument of periapsis: 70.0017 deg

Mean anomaly: 291.4332 deg

Mean motion: 14.27857827 rev/day

Mean motion (dot): 0.0000368 rev/day2

B* drag term: 0.0013883 1/REarth

Two-line elements (TLE)

Creation date: July 8, 2025, 2:27 a.m.

Reference frame: TEME

Reference center: EARTH

Epoch: July 7, 2025, 10:12 p.m. UTC

TLE line 0: 0 CZ-6A DEB

TLE line 1: 1 54401U 22151DZ 25188.92515189 .00003680 00000-0 13883-2 0 9991

TLE line 2: 2 54401 98.6386 185.3491 0122735 70.0017 291.4332 14.27857827137288

Live tracking on map

Real-time ground track for satellite CZ-6A DEB.

In-orbit conjunctions

A list of the most updated potential collisions computed for object CZ-6A DEB.

Target Orbit TCA Probability of collision Miss distance Type
COSMOS 2251 DEB LEO 2024-09-25 12:17:20 0.0001195894 948.0 (m) DEBRIS
COSMOS 1048 LEO 2024-05-28 16:07:27 0.0002443902 426.0 (m) PAYLOAD

Associated space launch

Chinese satellite reported for atmospheric/ocean/environmental/spatial parameter research purposes, details TBD.

CZ-6A DEB was lifted into orbit during the mission ‘Long March 6A | Yunhai 3’, on board a Long March 6A space rocket.

The launch took place on Nov. 11, 2022, 10:52 p.m. from Launch Complex 9A.

For more information about the launch, click the button.

Launch to space Long March 6A | Yunhai 3
Long March 6A | Yunhai 3

Agency: N/A

Status: Launch Successful

Launch date: Nov. 11, 2022, 10:52 p.m. UTC

Rocket: Long March 6A

Launch pad: Launch Complex 9A

Location: Taiyuan Satellite Launch Center, People's Republic of China

...

Latest news about this satellite

There are no fresh news available about this satellite. Check back as we update our databases every day.


Newsletter sign-up

Weekly statistics, charts and insights to help you stay on top of the space industry.